QPF
0.06 0.05 0.06 0.03 0.02 0.01 0.01 0.01 0.01 0.01 0.01 0.01 0.01 0.02 0.03 0.03 0.03 0.03 0.04 0.07 0.06 0.04 0.03 0.03 0.02 0.04 0.04 0.04 0.03 0.03 0.04 0.04 0.05 0.06 0.06 0.06 0.05 0.05 0.04 0.05 0.05 0.05 0.06
0.05 0.05 0.04 0.03 0.02 0.02 0.02 0.01 0.01 0.01 0.01 0.01 0.01 0.02 0.02 0.02 0.03 0.04 0.05 0.04 0.03 0.04 0.03 0.03 0.02 0.03 0.04 0.04 0.03 0.03 0.03 0.03 0.04 0.04 0.04 0.04 0.06 0.06 0.05 0.05 0.04 0.05 0.05
0.03 0.02 0.02 0.02 0.02 0.02 0.02 0.01 0.01 0.01 0.01 0.01 0.01 0.01 0.01 0.02 0.03 0.04 0.03 0.03 0.03 0.04 0.03 0.02 0.02 0.02 0.04 0.05 0.03 0.02 0.02 0.02 0.04 0.04 0.03 0.01 0.02 0.05 0.04 0.07 0.06 0.04 0.03
0.02 0.01 0.02 0.02 0.02 0.02 0.01 0.01 0.01 0.01 0.00 0.01 0.01 0.01 0.01 0.01 0.02 0.02 0.03 0.03 0.04 0.05 0.04 0.03 0.02 0.03 0.03 0.04 0.03 0.03 0.02 0.02 0.02 0.03 0.02 0.02 0.02 0.02 0.02 0.04 0.04 0.03 0.04
0.01 0.01 0.01 0.01 0.01 0.01 0.01 0.00 0.00 0.00 0.00 0.00 0.00 0.00 0.01 0.01 0.01 0.02 0.03 0.03 0.05 0.06 0.05 0.04 0.04 0.04 0.03 0.02 0.02 0.02 0.02 0.02 0.02 0.02 0.02 0.02 0.02 0.02 0.01 0.02 0.02 0.02 0.02
0.01 0.01 0.01 0.00 0.01 0.01 0.00 0.00 0.00 0.00 0.00 0.00 0.00 0.00 0.00 0.01 0.01 0.02 0.02 0.02 0.04 0.05 0.06 0.04 0.05 0.04 0.03 0.02 0.02 0.02 0.02 0.02 0.02 0.02 0.02 0.02 0.02 0.02 0.02 0.03 0.03 0.02 0.02
0.01 0.01 0.00 0.00 0.00 0.01 0.00 0.00 0.00 0.00 0.00 0.00 0.00 0.00 0.00 0.01 0.01 0.02 0.02 0.03 0.03 0.05 0.06 0.05 0.04 0.03 0.02 0.02 0.01 0.02 0.02 0.01 0.02 0.02 0.03 0.02 0.02 0.03 0.04 0.03 0.02 0.02 0.02
0.01 0.01 0.00 0.00 0.00 0.01 0.00 0.00 0.00 0.00 0.00 0.00 0.00 0.00 0.00 0.01 0.01 0.02 0.02 0.03 0.03 0.03 0.03 0.04 0.04 0.03 0.02 0.01 0.01 0.02 0.02 0.01 0.01 0.02 0.02 0.02 0.02 0.03 0.05 0.04 0.04 0.04 0.03
0.01 0.01 0.01 0.01 0.00 0.00 0.00 0.00 0.00 0.00 0.00 0.00 0.00 0.01 0.01 0.01 0.01 0.01 0.01 0.02 0.03 0.03 0.02 0.03 0.05 0.04 0.03 0.02 0.01 0.01 0.01 0.02 0.01 0.01 0.01 0.02 0.02 0.03 0.05 0.05 0.06 0.06 0.05
0.02 0.02 0.02 0.01 0.00 0.00 0.00 0.00 0.00 0.00 0.00 0.00 0.00 0.01 0.01 0.00 0.00 0.01 0.01 0.02 0.02 0.02 0.01 0.02 0.03 0.04 0.03 0.03 0.02 0.01 0.02 0.02 0.03 0.02 0.01 0.01 0.02 0.02 0.04 0.04 0.06 0.08 0.07
0.03 0.02 0.01 0.01 0.00 0.00 0.00 0.00 0.01 0.00 0.01 0.00 0.01 0.01 0.01 0.01 0.01 0.01 0.01 0.01 0.02 0.02 0.02 0.02 0.02 0.03 0.04 0.05 0.05 0.03 0.02 0.02 0.02 0.02 0.02 0.02 0.02 0.02 0.03 0.04 0.05 0.05 0.05
0.04 0.02 0.01 0.01 0.01 0.01 0.01 0.01 0.02 0.01 0.01 0.01 0.01 0.01 0.02 0.03 0.02 0.02 0.02 0.02 0.02 0.01 0.02 0.02 0.01 0.02 0.03 0.05 0.05 0.05 0.03 0.03 0.03 0.03 0.04 0.04 0.04 0.04 0.04 0.04 0.04 0.04 0.05
0.01 0.01 0.01 0.01 0.02 0.02 0.03 0.03 0.03 0.03 0.02 0.01 0.01 0.02 0.03 0.03 0.03 0.03 0.04 0.04 0.03 0.02 0.02 0.02 0.02 0.02 0.02 0.02 0.03 0.03 0.05 0.05 0.05 0.06 0.06 0.05 0.04 0.04 0.04 0.04 0.04 0.05 0.06
0.01 0.01 0.01 0.01 0.01 0.02 0.04 0.04 0.04 0.04 0.04 0.03 0.03 0.03 0.02 0.02 0.02 0.02 0.02 0.03 0.03 0.02 0.02 0.02 0.02 0.02 0.02 0.02 0.02 0.02 0.02 0.03 0.03 0.03 0.03 0.02 0.02 0.02 0.02 0.02 0.03 0.04 0.05
0.01 0.01 0.01 0.01 0.01 0.01 0.01 0.01 0.02 0.03 0.04 0.05 0.05 0.04 0.02 0.01 0.01 0.01 0.01 0.01 0.02 0.02 0.02 0.02 0.01 0.01 0.01 0.02 0.02 0.02 0.02 0.01 0.01 0.01 0.01 0.01 0.01 0.02 0.03 0.03 0.04 0.05 0.05
0.02 0.01 0.01 0.01 0.01 0.01 0.01 0.01 0.01 0.01 0.02 0.04 0.05 0.04 0.03 0.02 0.01 0.01 0.01 0.01 0.02 0.02 0.03 0.02 0.02 0.02 0.02 0.02 0.02 0.01 0.02 0.02 0.01 0.01 0.01 0.01 0.00 0.01 0.02 0.03 0.05 0.06 0.06
0.03 0.02 0.02 0.01 0.01 0.02 0.02 0.02 0.01 0.01 0.02 0.02 0.02 0.02 0.02 0.02 0.01 0.01 0.01 0.01 0.01 0.02 0.03 0.03 0.03 0.02 0.02 0.02 0.02 0.01 0.02 0.01 0.01 0.01 0.01 0.01 0.00 0.01 0.01 0.01 0.02 0.04 0.06
0.01 0.02 0.02 0.02 0.02 0.02 0.02 0.02 0.02 0.02 0.02 0.02 0.02 0.01 0.02 0.02 0.02 0.03 0.01 0.01 0.01 0.01 0.02 0.03 0.04 0.04 0.02 0.02 0.02 0.02 0.02 0.01 0.01 0.02 0.02 0.03 0.02 0.02 0.02 0.03 0.04 0.03 0.04
0.01 0.01 0.01 0.02 0.02 0.02 0.01 0.01 0.01 0.02 0.03 0.03 0.03 0.02 0.02 0.02 0.03 0.03 0.03 0.03 0.02 0.01 0.01 0.02 0.03 0.04 0.04 0.04 0.03 0.03 0.02 0.01 0.01 0.01 0.02 0.02 0.02 0.02 0.03 0.03 0.03 0.03 0.03
0.02 0.02 0.02 0.02 0.02 0.02 0.02 0.02 0.02 0.02 0.01 0.02 0.02 0.02 0.03 0.03 0.03 0.04 0.04 0.05 0.05 0.04 0.03 0.03 0.03 0.03 0.03 0.04 0.04 0.03 0.02 0.01 0.01 0.01 0.01 0.02 0.02 0.02 0.03 0.03 0.02 0.01 0.01
0.05 0.05 0.03 0.02 0.02 0.02 0.02 0.03 0.03 0.02 0.02 0.02 0.02 0.02 0.02 0.03 0.03 0.04 0.05 0.05 0.06 0.06 0.05 0.05 0.05 0.04 0.04 0.03 0.03 0.03 0.02 0.01 0.02 0.02 0.02 0.01 0.01 0.02 0.03 0.03 0.02 0.02 0.02
0.04 0.05 0.05 0.04 0.02 0.01 0.01 0.01 0.02 0.02 0.02 0.02 0.03 0.03 0.02 0.02 0.02 0.03 0.03 0.04 0.05 0.06 0.07 0.08 0.09 0.08 0.06 0.05 0.04 0.04 0.03 0.02 0.02 0.01 0.02 0.02 0.02 0.02 0.02 0.02 0.02 0.03 0.04
0.01 0.01 0.01 0.01 0.01 0.01 0.01 0.02 0.02 0.03 0.03 0.03 0.04 0.04 0.03 0.03 0.03 0.03 0.03 0.03 0.05 0.07 0.09 0.11 0.10 0.08 0.07 0.06 0.06 0.06 0.06 0.05 0.03 0.02 0.02 0.03 0.03 0.02 0.01 0.01 0.02 0.02 0.03
0.00 0.00 0.01 0.01 0.01 0.01 0.02 0.02 0.02 0.03 0.04 0.04 0.04 0.04 0.03 0.04 0.05 0.05 0.05 0.06 0.06 0.08 0.08 0.07 0.06 0.05 0.06 0.07 0.08 0.08 0.08 0.07 0.05 0.04 0.04 0.04 0.02 0.02 0.02 0.02 0.02 0.02 0.03
0.01 0.00 0.01 0.01 0.01 0.01 0.01 0.02 0.02 0.03 0.04 0.04 0.05 0.05 0.05 0.05 0.06 0.06 0.06 0.05 0.06 0.07 0.07 0.05 0.04 0.04 0.04 0.05 0.06 0.07 0.09 0.08 0.06 0.06 0.05 0.04 0.03 0.02 0.02 0.02 0.03 0.04 0.04
0.02 0.02 0.02 0.01 0.01 0.01 0.01 0.02 0.02 0.03 0.04 0.05 0.05 0.05 0.05 0.04 0.04 0.04 0.04 0.04 0.04 0.04 0.04 0.04 0.04 0.04 0.05 0.06 0.05 0.06 0.07 0.08 0.07 0.05 0.03 0.03 0.03 0.02 0.02 0.03 0.03 0.04 0.03
MSLP
1008.76 1009.04 1009.41 1009.82 1010.26 1010.70 1011.15 1011.64 1012.18 1012.78 1013.42 1014.07 1014.68 1015.22 1015.64 1015.95 1016.14 1016.25 1016.34 1016.44 1016.59 1016.81 1017.09 1017.41 1017.72 1017.99 1018.19 1018.30 1018.34 1018.32 1018.26 1018.20 1018.15 1018.11 1018.07 1018.00 1017.88 1017.68 1017.40 1017.05 1016.66 1016.27 1015.90
1010.16 1010.46 1010.80 1011.16 1011.51 1011.84 1012.19 1012.57 1013.02 1013.54 1014.11 1014.72 1015.29 1015.80 1016.19 1016.46 1016.61 1016.68 1016.71 1016.77 1016.87 1017.05 1017.30 1017.59 1017.88 1018.13 1018.31 1018.42 1018.45 1018.42 1018.38 1018.34 1018.32 1018.31 1018.30 1018.26 1018.14 1017.94 1017.63 1017.22 1016.75 1016.26 1015.80
1011.37 1011.71 1012.08 1012.42 1012.72 1012.97 1013.22 1013.50 1013.85 1014.28 1014.79 1015.35 1015.89 1016.37 1016.74 1016.99 1017.11 1017.15 1017.15 1017.15 1017.20 1017.33 1017.52 1017.76 1018.00 1018.22 1018.37 1018.45 1018.48 1018.46 1018.43 1018.42 1018.43 1018.47 1018.50 1018.50 1018.42 1018.23 1017.92 1017.49 1016.98 1016.42 1015.87
1012.28 1012.73 1013.15 1013.52 1013.79 1014.00 1014.17 1014.36 1014.61 1014.97 1015.40 1015.90 1016.41 1016.87 1017.23 1017.47 1017.58 1017.60 1017.56 1017.52 1017.53 1017.59 1017.72 1017.89 1018.07 1018.24 1018.36 1018.42 1018.43 1018.42 1018.41 1018.42 1018.48 1018.56 1018.64 1018.69 1018.66 1018.51 1018.23 1017.81 1017.29 1016.70 1016.10
1012.87 1013.43 1013.95 1014.37 1014.66 1014.84 1014.96 1015.07 1015.25 1015.52 1015.89 1016.33 1016.80 1017.24 1017.60 1017.83 1017.94 1017.95 1017.90 1017.83 1017.78 1017.79 1017.85 1017.96 1018.09 1018.21 1018.29 1018.33 1018.33 1018.32 1018.33 1018.37 1018.45 1018.57 1018.70 1018.79 1018.81 1018.72 1018.48 1018.10 1017.60 1017.02 1016.40
1013.14 1013.82 1014.43 1014.92 1015.24 1015.43 1015.52 1015.59 1015.70 1015.90 1016.20 1016.59 1017.03 1017.45 1017.80 1018.04 1018.16 1018.17 1018.11 1018.02 1017.94 1017.90 1017.92 1017.98 1018.06 1018.14 1018.20 1018.22 1018.21 1018.20 1018.21 1018.26 1018.35 1018.48 1018.63 1018.76 1018.82 1018.78 1018.60 1018.28 1017.83 1017.28 1016.68
1013.10 1013.88 1014.59 1015.15 1015.52 1015.73 1015.82 1015.86 1015.92 1016.07 1016.33 1016.68 1017.08 1017.48 1017.83 1018.07 1018.21 1018.23 1018.17 1018.08 1017.99 1017.94 1017.92 1017.96 1018.01 1018.07 1018.10 1018.11 1018.10 1018.08 1018.07 1018.10 1018.17 1018.29 1018.43 1018.56 1018.64 1018.63 1018.50 1018.24 1017.86 1017.38 1016.82
1012.79 1013.66 1014.44 1015.07 1015.49 1015.73 1015.84 1015.88 1015.93 1016.06 1016.28 1016.60 1016.98 1017.37 1017.71 1017.97 1018.12 1018.16 1018.12 1018.04 1017.96 1017.90 1017.89 1017.91 1017.95 1018.00 1018.03 1018.02 1017.99 1017.94 1017.90 1017.89 1017.91 1017.98 1018.07 1018.17 1018.24 1018.25 1018.16 1017.96 1017.65 1017.25 1016.77
1012.28 1013.20 1014.03 1014.71 1015.18 1015.47 1015.61 1015.67 1015.74 1015.87 1016.10 1016.41 1016.78 1017.16 1017.51 1017.77 1017.93 1017.99 1017.98 1017.92 1017.86 1017.81 1017.81 1017.84 1017.89 1017.93 1017.96 1017.94 1017.89 1017.80 1017.71 1017.63 1017.58 1017.56 1017.58 1017.62 1017.65 1017.65 1017.58 1017.43 1017.20 1016.88 1016.48
1011.63 1012.57 1013.43 1014.14 1014.65 1014.98 1015.17 1015.29 1015.41 1015.57 1015.82 1016.14 1016.52 1016.91 1017.25 1017.52 1017.69 1017.77 1017.78 1017.74 1017.70 1017.68 1017.69 1017.73 1017.79 1017.84 1017.86 1017.83 1017.75 1017.62 1017.47 1017.31 1017.17 1017.07 1017.00 1016.96 1016.93 1016.90 1016.84 1016.72 1016.55 1016.31 1016.00
1010.91 1011.85 1012.70 1013.42 1013.96 1014.34 1014.59 1014.78 1014.97 1015.20 1015.50 1015.85 1016.25 1016.64 1016.99 1017.26 1017.43 1017.51 1017.53 1017.51 1017.48 1017.48 1017.50 1017.56 1017.62 1017.68 1017.69 1017.64 1017.54 1017.37 1017.17 1016.94 1016.72 1016.53 1016.37 1016.25 1016.17 1016.10 1016.03 1015.93 1015.80 1015.63 1015.40
1010.17 1011.08 1011.92 1012.63 1013.19 1013.61 1013.93 1014.20 1014.47 1014.78 1015.14 1015.55 1015.97 1016.37 1016.72 1016.98 1017.14 1017.22 1017.23 1017.22 1017.19 1017.19 1017.23 1017.28 1017.35 1017.40 1017.40 1017.35 1017.22 1017.03 1016.79 1016.52 1016.25 1016.00 1015.78 1015.60 1015.47 1015.36 1015.27 1015.19 1015.08 1014.95 1014.78
1009.45 1010.32 1011.12 1011.81 1012.37 1012.83 1013.22 1013.57 1013.94 1014.33 1014.76 1015.22 1015.67 1016.08 1016.42 1016.66 1016.81 1016.87 1016.87 1016.84 1016.81 1016.81 1016.83 1016.88 1016.94 1016.98 1016.98 1016.92 1016.79 1016.60 1016.35 1016.08 1015.79 1015.52 1015.28 1015.08 1014.91 1014.79 1014.68 1014.59 1014.49 1014.38 1014.24
1008.73 1009.56 1010.31 1010.97 1011.53 1012.02 1012.46 1012.90 1013.35 1013.83 1014.33 1014.83 1015.31 1015.72 1016.05 1016.27 1016.39 1016.44 1016.42 1016.38 1016.34 1016.32 1016.33 1016.37 1016.41 1016.44 1016.44 1016.38 1016.27 1016.10 1015.88 1015.63 1015.38 1015.14 1014.92 1014.72 1014.56 1014.43 1014.31 1014.20 1014.09 1013.97 1013.83
1008.00 1008.77 1009.47 1010.10 1010.65 1011.16 1011.66 1012.16 1012.69 1013.24 1013.80 1014.35 1014.85 1015.26 1015.58 1015.79 1015.89 1015.92 1015.89 1015.83 1015.78 1015.76 1015.76 1015.78 1015.81 1015.83 1015.83 1015.79 1015.70 1015.57 1015.41 1015.23 1015.05 1014.87 1014.71 1014.56 1014.42 1014.29 1014.16 1014.03 1013.88 1013.72 1013.55
1007.20 1007.93 1008.58 1009.17 1009.71 1010.24 1010.78 1011.35 1011.94 1012.56 1013.17 1013.75 1014.26 1014.69 1015.00 1015.20 1015.30 1015.32 1015.30 1015.25 1015.21 1015.18 1015.18 1015.19 1015.22 1015.24 1015.24 1015.21 1015.16 1015.09 1015.00 1014.91 1014.81 1014.73 1014.64 1014.55 1014.46 1014.34 1014.20 1014.03 1013.83 1013.62 1013.39
1006.29 1006.98 1007.59 1008.16 1008.70 1009.25 1009.83 1010.44 1011.10 1011.77 1012.43 1013.04 1013.57 1014.01 1014.33 1014.54 1014.66 1014.70 1014.71 1014.69 1014.67 1014.67 1014.68 1014.70 1014.73 1014.74 1014.75 1014.74 1014.72 1014.70 1014.68 1014.67 1014.67 1014.68 1014.68 1014.66 1014.60 1014.50 1014.34 1014.13 1013.88 1013.59 1013.28
1005.25 1005.90 1006.49 1007.04 1007.59 1008.17 1008.80 1009.47 1010.18 1010.90 1011.60 1012.25 1012.81 1013.27 1013.62 1013.86 1014.02 1014.11 1014.17 1014.21 1014.25 1014.29 1014.34 1014.38 1014.41 1014.43 1014.44 1014.44 1014.45 1014.46 1014.49 1014.55 1014.62 1014.70 1014.77 1014.80 1014.78 1014.68 1014.50 1014.25 1013.93 1013.56 1013.17
1004.05 1004.69 1005.28 1005.84 1006.42 1007.04 1007.73 1008.46 1009.23 1010.00 1010.75 1011.43 1012.03 1012.52 1012.91 1013.21 1013.44 1013.61 1013.75 1013.87 1013.99 1014.09 1014.19 1014.26 1014.31 1014.34 1014.35 1014.35 1014.35 1014.38 1014.43 1014.52 1014.64 1014.76 1014.86 1014.92 1014.91 1014.81 1014.61 1014.32 1013.94 1013.50 1013.04
1002.77 1003.40 1004.00 1004.60 1005.24 1005.92 1006.67 1007.47 1008.30 1009.13 1009.93 1010.65 1011.29 1011.83 1012.28 1012.65 1012.95 1013.22 1013.46 1013.68 1013.89 1014.07 1014.23 1014.34 1014.42 1014.45 1014.45 1014.43 1014.42 1014.43 1014.48 1014.56 1014.68 1014.81 1014.92 1014.98 1014.97 1014.86 1014.64 1014.31 1013.89 1013.40 1012.89
1001.46 1002.11 1002.75 1003.40 1004.10 1004.86 1005.69 1006.57 1007.46 1008.35 1009.19 1009.97 1010.65 1011.24 1011.75 1012.19 1012.58 1012.94 1013.28 1013.60 1013.90 1014.17 1014.39 1014.55 1014.65 1014.68 1014.67 1014.63 1014.59 1014.57 1014.58 1014.64 1014.73 1014.83 1014.93 1014.98 1014.95 1014.82 1014.58 1014.23 1013.79 1013.28 1012.74
1000.23 1000.92 1001.61 1002.33 1003.10 1003.94 1004.85 1005.79 1006.76 1007.70 1008.59 1009.40 1010.13 1010.77 1011.33 1011.84 1012.30 1012.75 1013.17 1013.59 1013.97 1014.31 1014.59 1014.80 1014.92 1014.96 1014.93 1014.87 1014.79 1014.73 1014.70 1014.71 1014.76 1014.83 1014.89 1014.92 1014.87 1014.73 1014.48 1014.13 1013.69 1013.19 1012.65
999.21 999.93 1000.67 1001.45 1002.30 1003.21 1004.18 1005.19 1006.21 1007.19 1008.12 1008.96 1009.72 1010.40 1011.01 1011.56 1012.09 1012.59 1013.09 1013.57 1014.02 1014.42 1014.74 1014.98 1015.12 1015.17 1015.14 1015.06 1014.96 1014.87 1014.80 1014.77 1014.78 1014.81 1014.84 1014.84 1014.78 1014.64 1014.40 1014.07 1013.65 1013.17 1012.66
998.48 999.23 1000.01 1000.84 1001.74 1002.70 1003.72 1004.78 1005.82 1006.83 1007.78 1008.65 1009.43 1010.12 1010.75 1011.34 1011.90 1012.44 1012.97 1013.49 1013.98 1014.41 1014.76 1015.02 1015.18 1015.24 1015.22 1015.15 1015.04 1014.93 1014.85 1014.80 1014.78 1014.79 1014.80 1014.79 1014.73 1014.60 1014.38 1014.08 1013.70 1013.26 1012.79
998.13 998.89 999.69 1000.54 1001.46 1002.44 1003.48 1004.54 1005.60 1006.61 1007.56 1008.43 1009.22 1009.92 1010.56 1011.15 1011.72 1012.27 1012.81 1013.34 1013.83 1014.27 1014.63 1014.90 1015.08 1015.16 1015.16 1015.10 1015.01 1014.91 1014.84 1014.79 1014.78 1014.79 1014.80 1014.79 1014.74 1014.63 1014.44 1014.18 1013.84 1013.46 1013.03
998.18 998.93 999.71 1000.55 1001.45 1002.42 1003.44 1004.49 1005.52 1006.52 1007.45 1008.31 1009.09 1009.78 1010.42 1011.00 1011.55 1012.09 1012.61 1013.12 1013.59 1014.01 1014.36 1014.64 1014.82 1014.92 1014.95 1014.93 1014.88 1014.83 1014.79 1014.78 1014.79 1014.82 1014.85 1014.86 1014.83 1014.74 1014.59 1014.36 1014.07 1013.72 1013.34
Thickness
5807 5808 5807 5805 5802 5799 5797 5794 5792 5791 5789 5786 5784 5782 5781 5781 5781 5781 5780 5779 5778 5776 5774 5772 5770 5768 5766 5763 5762 5759 5756 5753 5752 5747 5742 5742 5743 5742 5741 5740 5738 5736 5735
5804 5805 5805 5804 5801 5798 5797 5795 5793 5792 5790 5788 5786 5785 5783 5782 5781 5781 5780 5779 5777 5775 5774 5771 5769 5767 5764 5761 5760 5758 5754 5752 5751 5746 5738 5732 5732 5735 5738 5737 5735 5733 5732
5805 5805 5804 5802 5801 5799 5798 5797 5795 5793 5791 5790 5787 5785 5783 5781 5779 5778 5777 5777 5776 5775 5773 5771 5769 5766 5764 5760 5759 5757 5754 5750 5750 5749 5742 5732 5726 5728 5731 5733 5733 5732 5730
5810 5807 5805 5803 5802 5801 5801 5798 5796 5794 5792 5790 5787 5783 5779 5775 5776 5777 5777 5776 5775 5774 5772 5770 5768 5766 5763 5761 5759 5758 5756 5752 5747 5747 5746 5743 5738 5729 5724 5727 5729 5729 5728
5813 5810 5809 5807 5806 5804 5802 5799 5797 5795 5793 5791 5788 5784 5780 5779 5778 5777 5775 5775 5774 5773 5772 5770 5767 5765 5762 5761 5759 5757 5755 5752 5748 5745 5744 5742 5739 5735 5728 5721 5722 5724 5725
5816 5813 5812 5809 5806 5805 5802 5800 5796 5794 5793 5791 5789 5785 5782 5779 5776 5775 5773 5772 5772 5771 5770 5769 5766 5764 5762 5761 5759 5756 5754 5752 5749 5747 5745 5741 5737 5733 5730 5723 5720 5718 5720
5816 5812 5809 5806 5805 5804 5802 5799 5796 5793 5792 5791 5789 5787 5784 5781 5778 5776 5774 5772 5770 5769 5769 5768 5766 5764 5762 5760 5758 5756 5753 5752 5749 5747 5745 5743 5741 5738 5733 5726 5719 5716 5716
5817 5815 5813 5810 5807 5805 5803 5800 5796 5793 5792 5790 5788 5787 5785 5783 5780 5778 5776 5774 5772 5771 5770 5768 5766 5764 5762 5760 5758 5755 5753 5751 5749 5747 5745 5742 5741 5739 5735 5729 5722 5714 5711
5819 5818 5816 5813 5809 5807 5804 5801 5797 5794 5792 5791 5789 5786 5785 5784 5781 5780 5778 5775 5774 5772 5770 5768 5766 5764 5761 5759 5757 5754 5752 5750 5748 5745 5743 5741 5740 5738 5736 5732 5727 5718 5708
5821 5818 5816 5814 5812 5810 5807 5803 5799 5795 5793 5791 5789 5788 5785 5784 5782 5780 5777 5775 5773 5772 5769 5767 5765 5763 5760 5758 5755 5753 5751 5748 5746 5744 5742 5739 5738 5736 5734 5731 5727 5723 5715
5819 5818 5817 5815 5812 5809 5805 5801 5798 5795 5792 5791 5789 5787 5785 5783 5781 5778 5777 5775 5773 5771 5768 5766 5763 5761 5758 5757 5754 5751 5749 5746 5743 5742 5740 5737 5736 5733 5731 5728 5725 5720 5715
5818 5817 5815 5812 5808 5805 5803 5799 5797 5795 5793 5791 5788 5786 5784 5781 5779 5777 5775 5774 5772 5770 5767 5764 5761 5759 5757 5755 5752 5749 5747 5744 5741 5739 5737 5735 5734 5730 5728 5725 5721 5718 5714
5813 5812 5810 5808 5805 5803 5801 5798 5797 5795 5793 5790 5786 5783 5780 5779 5777 5776 5774 5772 5770 5767 5766 5763 5760 5757 5755 5753 5751 5748 5745 5743 5741 5738 5735 5733 5730 5727 5724 5722 5718 5715 5712
5808 5807 5805 5803 5803 5802 5799 5796 5795 5794 5791 5788 5784 5780 5778 5776 5775 5774 5772 5770 5768 5765 5763 5761 5759 5756 5754 5751 5749 5746 5744 5741 5739 5737 5734 5732 5729 5726 5723 5719 5715 5712 5707
5801 5801 5800 5799 5798 5797 5796 5795 5793 5791 5789 5785 5781 5779 5778 5775 5773 5771 5769 5768 5765 5763 5761 5758 5756 5755 5752 5750 5747 5744 5742 5738 5735 5733 5732 5730 5728 5725 5722 5718 5713 5710 5705
5798 5798 5797 5796 5795 5794 5793 5791 5789 5787 5786 5782 5779 5777 5775 5772 5770 5768 5767 5764 5762 5760 5758 5756 5754 5752 5751 5749 5746 5743 5739 5736 5733 5730 5728 5726 5724 5721 5719 5716 5713 5710 5704
5793 5793 5793 5793 5792 5792 5791 5787 5786 5784 5781 5778 5776 5774 5772 5769 5768 5766 5763 5761 5759 5757 5754 5753 5751 5748 5748 5747 5744 5741 5737 5734 5730 5728 5725 5723 5721 5718 5715 5712 5709 5706 5703
5790 5789 5789 5789 5789 5788 5787 5785 5783 5779 5775 5772 5770 5770 5768 5766 5764 5762 5759 5758 5755 5752 5751 5749 5747 5745 5744 5743 5741 5738 5735 5731 5729 5726 5723 5719 5716 5715 5711 5707 5703 5701 5698
5787 5787 5786 5785 5784 5782 5781 5778 5775 5772 5769 5767 5766 5765 5764 5762 5760 5757 5755 5754 5751 5749 5748 5746 5744 5740 5740 5739 5737 5734 5730 5727 5725 5723 5720 5717 5714 5712 5708 5703 5698 5695 5694
5782 5781 5781 5779 5777 5775 5775 5770 5767 5764 5763 5762 5762 5762 5760 5758 5756 5754 5752 5750 5748 5746 5744 5742 5740 5737 5735 5735 5732 5729 5726 5722 5720 5718 5716 5714 5711 5708 5705 5700 5695 5690 5688
5775 5775 5773 5771 5770 5769 5766 5761 5759 5758 5760 5759 5758 5757 5756 5754 5752 5750 5748 5746 5743 5740 5738 5736 5735 5733 5732 5730 5728 5725 5721 5718 5715 5713 5710 5709 5707 5703 5700 5696 5692 5689 5685
5766 5766 5764 5762 5762 5762 5759 5754 5752 5755 5756 5754 5751 5750 5750 5748 5748 5744 5742 5740 5737 5734 5731 5729 5727 5726 5726 5725 5723 5721 5718 5715 5711 5709 5707 5704 5701 5698 5695 5691 5689 5685 5681
5757 5757 5755 5753 5753 5753 5752 5747 5748 5750 5749 5746 5744 5743 5742 5741 5740 5737 5735 5732 5730 5727 5725 5723 5721 5720 5719 5718 5717 5715 5712 5709 5706 5704 5702 5699 5695 5692 5689 5687 5684 5679 5675
5746 5746 5746 5744 5744 5745 5745 5744 5744 5744 5741 5738 5736 5735 5733 5733 5732 5731 5729 5727 5725 5723 5720 5717 5715 5714 5713 5712 5710 5708 5705 5702 5699 5697 5694 5691 5688 5686 5684 5681 5678 5674 5671
5737 5738 5736 5735 5735 5737 5736 5737 5736 5734 5732 5730 5728 5726 5726 5725 5724 5724 5723 5722 5722 5721 5718 5716 5714 5710 5708 5709 5707 5704 5700 5697 5694 5689 5686 5682 5679 5676 5675 5673 5671 5669 5665
5728 5727 5727 5727 5727 5728 5727 5728 5728 5726 5723 5720 5719 5718 5717 5717 5715 5714 5714 5715 5715 5714 5713 5712 5710 5708 5707 5705 5701 5698 5695 5691 5687 5682 5678 5676 5673 5671 5669 5666 5664 5662 5660